Location: Caracas
(10.4880°N, 66.8792°W)
Time: 12:13:31
(UTC+00:00)

ARIANE 6 FM1 Upper Stage - Pass Details

Date: 03 August 2024
Orbit: 566 x 594 km, 62.0° (Epoch: 14 September)

Event Time Altitude Azimuth Distance (km) Brightness Sun altitude
Rises 23:18:41 0° 356° (N) 2,822 6.6 -7.4°
Reaches altitude 10° 23:21:23 10° 12° (NNE) 1,918 5.5 -8.1°
Maximum altitude 23:24:42 21° 62° (ENE) 1,333 4.2 -8.8°
Enters shadow 23:27:28 12° 107° (ESE) 1,760 4.5 -9.5°
